PST,Max TemperatureF,Mean TemperatureF,Min TemperatureF,Max Dew PointF,MeanDew PointF,Min DewpointF,Max Humidity, Mean Humidity, Min Humidity, Max Sea Level PressureIn, Mean Sea Level PressureIn, Min Sea Level PressureIn, Max VisibilityMiles, Mean VisibilityMiles, Min VisibilityMiles, Max Wind SpeedMPH, Mean Wind SpeedMPH, Max Gust SpeedMPH,PrecipitationIn, CloudCover, Events, WindDirDegrees
2012-11-1,55,53,51,55,53,50,100,96,88,30.06,29.91,29.71,10,6,2,38,21,46,0.43,7,Rain,189
2012-11-2,53,52,50,54,50,48,100,95,88,30.04,30.01,29.97,10,9,3,8,6,,0.20,6,Rain,100
2012-11-3,57,54,51,55,55,52,100,99,94,30.21,30.13,30.00,10,4,0,22,10,32,0.16,8,Fog-Rain,188
2012-11-4,62,58,55,61,58,55,100,97,88,30.37,30.30,30.20,10,4,0,16,7,26,0.03,8,Fog-Rain,182
2012-11-5,62,58,53,61,56,54,100,97,88,30.40,30.28,30.11,10,4,0,13,4,,0.01,5,Fog-Rain,32
2012-11-6,55,52,48,54,53,46,100,98,93,30.18,30.11,30.06,10,4,0,13,3,17,0.02,6,Fog-Rain,198
2012-11-7,53,47,41,50,44,39,100,91,67,30.23,30.14,29.94,10,8,1,8,1,,0.01,3,Rain,183
2012-11-8,46,42,35,43,41,36,100,93,81,29.93,29.83,29.79,10,9,1,8,4,,0.29,6,Rain,95
2012-11-9,48,40,33,43,39,34,100,92,76,29.96,29.91,29.89,10,9,1,12,4,,0.34,5,Rain,155
2012-11-10,50,42,33,43,38,34,100,93,71,30.23,30.11,29.96,10,9,0,9,6,,0.11,4,Fog-Rain,107
2012-11-11,50,46,42,46,43,41,93,89,81,30.24,30.21,30.16,10,10,10,25,9,33,0.18,8,Rain,155
2012-11-12,53,50,46,52,50,46,100,96,82,30.27,30.21,30.14,10,6,2,28,14,41,0.27,7,Rain,182
2012-11-13,53,50,46,52,49,45,100,96,87,30.27,30.21,30.18,10,9,2,10,6,,0.01,6,Rain,136
2012-11-14,55,48,42,52,48,41,100,96,82,30.31,30.26,30.19,10,8,0,12,4,,0.01,4,Fog-Rain,56
2012-11-15,50,44,39,45,43,39,100,92,76,30.18,30.04,29.95,10,9,0,10,5,,0.00,2,Fog,93
2012-11-16,57,49,41,50,46,41,100,88,72,29.95,29.86,29.72,10,10,4,23,6,29,0.09,7,Rain,140
2012-11-17,55,48,42,52,46,41,100,91,77,29.83,29.70,29.59,10,8,2,21,11,30,0.71,7,Rain,173
2012-11-18,53,48,44,52,47,43,100,91,82,29.85,29.75,29.63,10,7,2,41,18,59,0.91,8,Rain,179
2012-11-19,57,54,51,54,53,50,100,95,82,29.74,29.62,29.54,10,4,1,48,31,67,1.08,8,Rain,193
2012-11-20,55,50,44,52,47,43,100,91,76,29.81,29.68,29.60,10,7,2,29,15,46,0.63,7,Rain,177
2012-11-21,51,45,39,46,40,37,93,79,58,30.31,30.05,29.65,10,8,3,24,15,37,0.13,4,Rain,220
2012-11-22,53,45,37,45,40,36,100,86,67,30.33,30.30,30.25,10,10,10,10,7,,0.00,0,,101
2012-11-23,57,50,42,52,48,37,100,87,76,30.27,30.20,30.15,10,7,2,26,11,37,0.93,7,Rain,171
2012-11-24,51,44,37,52,46,37,100,95,82,30.29,30.25,30.21,10,5,1,9,3,,0.06,5,Rain,7
2012-11-25,48,40,33,43,38,34,100,91,76,30.29,30.21,30.05,10,7,0,18,8,26,0.00,2,Fog,69
2012-11-26,53,47,41,46,39,32,93,76,58,30.07,30.03,30.01,10,10,7,16,8,23,0.00,3,,111
2012-11-27,51,46,42,46,42,37,93,82,71,30.06,29.98,29.84,10,10,10,16,7,20,0.00,3,,88
2012-11-28,59,52,44,50,42,36,94,74,55,29.83,29.66,29.57,10,10,3,26,14,39,0.01,6,Rain,122
2012-11-29,57,54,50,50,47,43,94,84,59,29.64,29.56,29.45,10,9,3,16,9,25,0.57,8,Rain,141
2012-11-30,55,52,48,52,51,45,94,91,82,29.54,29.48,29.42,7,5,1,37,22,48,0.52,8,Rain,190